User: anonymous   Login
Location: Mentone
(34.5413°N, 85.5351°W)
Time: 04:52:45
(UTC-05:00)
Language:

Centaur AC-72 - Orbit

View from above orbital plane
View from above orbital plane
View from above satellite
View from above satellite

Ground track
Ground track

The orbit data is extracted from the following two-line orbital elements,

1 21907U 92013B   14301.33390447 -.00000105  00000-0  00000+0 0  9509
2 21907 019.0722 217.5422 6943561 310.7324 288.4345 02.25606697186540
Epoch (UTC): 28 October 2014 08:00:49
Eccentricity: 0.6943561
inclination: 19.0722°
perigee height: 1127 km
apogee height: 35229 km
right ascension of ascending node: 217.5422°
argument of perigee: 310.7324°
revolutions per day: 2.25606697
mean anomaly at epoch: 288.4345°
orbit number at epoch: 18654

The dashed part of the orbit path shows where the satellite is in the earth's shadow,  

DLR